GW5447 Weather Reports


Display with metric or nautical units.
time (UTC)temp
F
wind
direction
speed
MPH
gust
MPH
rain 1hr
in
rain 24hr
in
rain mn
in
humidity
%
barometer
mb
20260508145211 55 188 0.0 0.0 0.00 0.00 0.00 64 1014.2
20260508144708 55 179 0.0 0.0 0.00 0.00 0.00 63 1014.1
20260508144206 54 218 0.0 0.0 0.00 0.00 0.00 61 1014.1
20260508143703 54 197 0.0 0.0 0.00 0.00 0.00 64 1014.2
20260508143201 54 322 2.0 2.0 0.00 0.00 0.00 60 1014.1
20260508142656 54 204 0.0 0.0 0.00 0.00 0.00 61 1014.0
20260508142153 54 199 0.0 1.0 0.00 0.00 0.00 62 1014.0
20260508141649 55 234 0.0 1.0 0.00 0.00 0.00 60 1014.0
20260508141148 55 229 0.0 2.0 0.00 0.00 0.00 58 1014.0
20260508140645 55 144 0.0 1.0 0.00 0.00 0.00 61 1014.1
20260508140142 55 217 0.0 1.0 0.00 0.00 0.00 63 1014.0
20260508135637 55 240 0.0 1.0 0.00 0.00 0.00 61 1014.1
20260508135133 55 215 0.0 0.0 0.00 0.00 0.00 59 1014.0
20260508134630 55 200 0.0 1.0 0.00 0.00 0.00 62 1014.0
20260508134127 55 244 0.0 1.0 0.00 0.00 0.00 60 1014.1
20260508133624 55 182 0.0 1.0 0.00 0.00 0.00 63 1014.0
20260508133121 55 187 0.0 1.0 0.00 0.00 0.00 63 1013.9
20260508132619 55 287 1.0 1.0 0.00 0.00 0.00 59 1014.1
20260508132115 55 255 0.0 2.0 0.00 0.00 0.00 59 1013.8
20260508131611 55 308 1.0 4.0 0.00 0.00 0.00 58 1014.0
20260508131108 55 150 0.0 1.0 0.00 0.00 0.00 58 1014.0
20260508130604 55 249 0.0 2.0 0.00 0.00 0.00 60 1013.9
20260508125557 54 196 0.0 1.0 0.00 0.00 0.00 62 1014.2
20260508125055 53 61 1.0 1.0 0.00 0.00 0.00 64 1014.0
20260508124553 53 218 0.0 1.0 0.00 0.00 0.00 63 1013.8
20260508124049 52 216 0.0 3.0 0.00 0.00 0.00 68 1013.8
20260508123548 52 186 0.0 1.0 0.00 0.00 0.00 70 1013.8
20260508123044 51 189 0.0 1.0 0.00 0.00 0.00 72 1013.7
20260508122541 51 210 0.0 1.0 0.00 0.00 0.00 76 1013.7
20260508122038 50 146 0.0 0.0 0.00 0.00 0.00 79 1013.9
20260508121537 50 213 0.0 0.0 0.00 0.00 0.00 79 1013.9
20260508121034 49 172 0.0 0.0 0.00 0.00 0.00 82 1013.7
20260508120531 48 175 0.0 0.0 0.00 0.00 0.00 84 1013.8
20260508120029 47 198 0.0 0.0 0.00 0.00 0.00 86 1013.8
20260508115527 46 219 0.0 0.0 0.00 0.00 0.00 91 1013.8
20260508115023 45 159 0.0 0.0 0.00 0.00 0.00 95 1013.8
20260508114520 44 165 0.0 0.0 0.00 0.00 0.00 97 1013.8
20260508114016 44 168 0.0 0.0 0.00 0.00 0.00 97 1013.6
20260508113514 43 168 0.0 0.0 0.00 0.00 0.00 97 1013.6
20260508113011 43 162 0.0 0.0 0.00 0.00 0.00 98 1013.6
20260508112508 42 160 0.0 0.0 0.00 0.00 0.00 98 1013.6
20260508112004 41 159 0.0 0.0 0.00 0.00 0.00 98 1013.6
20260508111501 40 163 0.0 0.0 0.00 0.00 0.00 97 1013.6
20260508110958 40 161 0.0 0.0 0.00 0.00 0.00 97 1013.6
20260508110456 39 160 0.0 0.0 0.00 0.00 0.00 97 1013.5
20260508105956 39 167 0.0 0.0 0.00 0.00 0.00 97 1013.6
20260508105452 39 167 0.0 0.0 0.00 0.00 0.00 97 1013.4
20260508104950 39 167 0.0 0.0 0.00 0.00 0.00 97 1013.3
20260508104447 39 167 0.0 0.0 0.00 0.00 0.00 97 1013.4
20260508103943 39 167 0.0 0.0 0.00 0.00 0.00 97 1013.3
20260508103441 39 167 0.0 0.0 0.00 0.00 0.00 97 1013.3
20260508102937 39 167 0.0 0.0 0.00 0.00 0.00 97 1013.5
20260508102436 39 167 0.0 0.0 0.00 0.00 0.00 97 1013.3
20260508101933 39 167 0.0 0.0 0.00 0.00 0.00 97 1013.3
20260508101430 39 167 0.0 0.0 0.00 0.00 0.00 97 1013.2
20260508100927 39 167 0.0 0.0 0.00 0.00 0.00 96 1013.2
20260508100426 40 167 0.0 0.0 0.00 0.00 0.00 97 1013.0
20260508095922 40 167 0.0 0.0 0.00 0.00 0.00 97 1013.2
20260508095420 40 167 0.0 0.0 0.00 0.00 0.00 96 1013.2
20260508094916 40 167 0.0 0.0 0.00 0.00 0.00 96 1013.2
20260508094413 40 167 0.0 0.0 0.00 0.00 0.00 96 1013.3
20260508093910 40 167 0.0 0.0 0.00 0.00 0.00 96 1013.3
20260508093408 40 167 0.0 0.0 0.00 0.00 0.00 96 1013.3
20260508092905 40 167 0.0 0.0 0.00 0.00 0.00 96 1013.2
20260508092403 40 167 0.0 0.0 0.00 0.00 0.00 96 1013.3
20260508091901 41 167 0.0 0.0 0.00 0.00 0.00 96 1013.3
20260508091357 41 167 0.0 0.0 0.00 0.00 0.00 96 1013.3
20260508090855 41 167 0.0 0.0 0.00 0.00 0.00 96 1013.4
20260508090353 41 167 0.0 0.0 0.00 0.00 0.00 95 1013.3
20260508085848 41 167 0.0 0.0 0.00 0.00 0.00 95 1013.3
20260508085345 41 167 0.0 0.0 0.00 0.00 0.00 95 1013.4
20260508084842 42 167 0.0 0.0 0.00 0.00 0.00 95 1013.3
20260508084339 42 167 0.0 0.0 0.00 0.00 0.00 95 1013.4
20260508083837 42 167 0.0 0.0 0.00 0.00 0.00 95 1013.2
20260508083334 42 167 0.0 0.0 0.00 0.00 0.00 95 1013.4
20260508082833 42 167 0.0 0.0 0.00 0.00 0.00 95 1013.3
20260508082331 42 167 0.0 0.0 0.00 0.00 0.00 94 1013.2
20260508081828 42 167 0.0 0.0 0.00 0.00 0.00 94 1013.2
20260508081325 42 167 0.0 0.0 0.00 0.00 0.00 93 1013.2
20260508080822 42 167 0.0 0.0 0.00 0.00 0.00 93 1013.2
20260508080320 43 167 0.0 0.0 0.00 0.00 0.00 93 1013.2
20260508075816 43 167 0.0 0.0 0.00 0.00 0.00 93 1013.2
20260508075313 43 167 0.0 0.0 0.00 0.00 0.00 92 1013.4
20260508074811 44 167 0.0 0.0 0.00 0.00 0.00 92 1013.2
20260508074308 44 167 0.0 0.0 0.00 0.00 0.00 92 1013.4
20260508073805 44 165 0.0 0.0 0.00 0.00 0.00 91 1013.4
20260508073303 44 165 0.0 0.0 0.00 0.00 0.00 91 1013.4
20260508072759 45 165 0.0 0.0 0.00 0.00 0.00 90 1013.4
20260508072256 45 165 0.0 0.0 0.00 0.00 0.00 90 1013.5
20260508071753 45 165 0.0 0.0 0.00 0.00 0.00 89 1013.6
20260508071252 46 165 0.0 0.0 0.00 0.00 0.00 89 1013.7
20260508070748 46 165 0.0 0.0 0.00 0.00 0.00 89 1013.8
20260508070247 46 165 0.0 0.0 0.00 0.00 0.00 89 1014.0
20260508065744 46 165 0.0 0.0 0.00 0.00 0.00 88 1013.7
20260508065242 46 165 0.0 0.0 0.00 0.00 0.00 88 1013.7
20260508064740 47 164 0.0 0.0 0.00 0.00 0.00 87 1013.6
20260508064238 47 164 0.0 1.0 0.00 0.00 0.00 87 1013.8
20260508063734 47 176 0.0 0.0 0.00 0.00 0.00 86 1013.9
20260508063232 47 162 0.0 0.0 0.00 0.00 0.00 85 1014.1
20260508062729 47 161 0.0 0.0 0.00 0.00 0.00 84 1014.3
20260508062227 47 161 0.0 0.0 0.00 0.00 0.00 83 1014.2
20260508061724 47 131 0.0 1.0 0.00 0.00 0.00 83 1014.2
20260508061221 47 146 0.0 0.0 0.00 0.00 0.00 83 1014.2
20260508060717 47 118 0.0 0.0 0.00 0.00 0.00 85 1014.3
20260508060215 47 128 0.0 1.0 0.00 0.00 0.00 86 1014.2
20260508055710 47 232 0.0 0.0 0.00 0.00 0.00 87 1014.2
20260508055207 46 222 0.0 0.0 0.00 0.00 0.00 85 1014.0
20260508054704 46 222 0.0 0.0 0.00 0.00 0.00 85 1013.9
20260508054201 46 212 0.0 0.0 0.00 0.00 0.00 86 1013.7
20260508053658 46 207 0.0 0.0 0.00 0.00 0.00 86 1013.6
20260508053156 45 207 0.0 0.0 0.00 0.00 0.00 86 1013.7
20260508052653 45 207 0.0 0.0 0.00 0.00 0.00 86 1013.8
20260508052150 45 206 0.0 0.0 0.00 0.00 0.00 86 1013.7
20260508051646 45 207 0.0 0.0 0.00 0.00 0.00 86 1013.8
20260508051142 45 207 0.0 0.0 0.00 0.00 0.00 86 1013.8
20260508050638 45 206 0.0 0.0 0.00 0.00 0.00 86 1013.7
20260508050136 45 206 0.0 0.0 0.00 0.00 0.00 86 1013.7
20260508045631 45 207 0.0 0.0 0.00 0.00 0.00 85 1013.7
20260508045130 45 206 0.0 0.0 0.00 0.00 0.00 85 1013.8
20260508044626 45 206 0.0 0.0 0.00 0.00 0.00 85 1014.0
20260508044123 45 206 0.0 0.0 0.00 0.00 0.00 84 1014.0
20260508043619 45 206 0.0 0.0 0.00 0.00 0.00 84 1013.8
20260508043117 45 220 0.0 0.0 0.00 0.00 0.00 84 1013.8
20260508042613 45 215 0.0 0.0 0.00 0.00 0.00 85 1013.9
20260508042111 45 180 0.0 0.0 0.00 0.00 0.00 85 1013.8
20260508041607 44 180 0.0 0.0 0.00 0.00 0.00 85 1013.8
20260508041103 44 180 0.0 0.0 0.00 0.00 0.00 85 1013.8
20260508040600 44 180 0.0 0.0 0.00 0.00 0.00 84 1014.0
20260508040058 44 180 0.0 0.0 0.00 0.00 0.00 84 1013.9
20260508035555 44 180 0.0 0.0 0.00 0.00 0.00 83 1014.0
20260508035052 44 180 0.0 0.0 0.00 0.00 0.00 82 1013.9
20260508034549 44 180 0.0 0.0 0.00 0.00 0.00 81 1013.9
20260508034046 45 180 0.0 0.0 0.00 0.00 0.00 80 1013.9
20260508033543 45 180 0.0 0.0 0.00 0.00 0.00 80 1013.8
20260508033042 45 180 0.0 0.0 0.00 0.00 0.00 80 1013.8
20260508032538 45 179 0.0 0.0 0.00 0.00 0.00 80 1013.9
20260508032036 44 195 0.0 0.0 0.00 0.00 0.00 80 1014.0
20260508031533 44 196 0.0 0.0 0.00 0.00 0.00 80 1014.1
20260508031028 44 195 0.0 0.0 0.00 0.00 0.00 81 1013.8
20260508030525 44 195 0.0 0.0 0.00 0.00 0.00 81 1013.8
20260508030024 43 195 0.0 0.0 0.00 0.00 0.00 82 1013.8
20260508025519 43 195 0.0 0.0 0.00 0.00 0.00 81 1014.0
20260508025016 43 195 0.0 0.0 0.00 0.00 0.00 80 1014.0
20260508024512 43 195 0.0 0.0 0.00 0.00 0.00 79 1013.9
20260508024009 43 195 0.0 0.0 0.00 0.00 0.00 78 1013.8
20260508023506 43 195 0.0 0.0 0.00 0.00 0.00 78 1013.8
20260508023003 44 195 0.0 0.0 0.00 0.00 0.00 76 1013.9
20260508022458 44 195 0.0 0.0 0.00 0.00 0.00 74 1013.9
20260508021955 44 195 0.0 0.0 0.00 0.00 0.00 73 1013.8
20260508021452 45 195 0.0 0.0 0.00 0.00 0.00 73 1013.6
20260508020947 45 195 0.0 0.0 0.00 0.00 0.00 71 1013.7
20260508020446 45 195 0.0 0.0 0.00 0.00 0.00 71 1013.8
20260508015942 45 195 0.0 0.0 0.00 0.00 0.00 71 1014.0
20260508015440 45 195 0.0 0.0 0.00 0.00 0.00 70 1014.0
20260508014937 45 195 0.0 0.0 0.00 0.00 0.00 69 1014.0
20260508014434 46 195 0.0 0.0 0.00 0.00 0.00 68 1013.9
20260508013929 46 195 0.0 0.0 0.00 0.00 0.00 68 1013.8
20260508013426 46 195 0.0 0.0 0.00 0.00 0.00 66 1013.7
20260508012923 46 195 0.0 0.0 0.00 0.00 0.00 65 1013.7
20260508012420 47 195 0.0 0.0 0.00 0.00 0.00 65 1013.8
20260508011917 47 195 0.0 0.0 0.00 0.00 0.00 63 1013.8
20260508011415 48 195 0.0 0.0 0.00 0.00 0.00 63 1013.5
20260508010912 48 195 0.0 0.0 0.00 0.00 0.00 63 1013.6
20260508010409 48 195 0.0 0.0 0.00 0.00 0.00 62 1013.6
20260508005906 49 195 0.0 0.0 0.00 0.00 0.00 61 1013.5
20260508005403 49 195 0.0 0.0 0.00 0.00 0.00 59 1013.5
20260508004859 50 195 0.0 0.0 0.00 0.00 0.00 56 1013.5
20260508004355 50 195 0.0 0.0 0.00 0.00 0.00 58 1013.4
20260508003852 51 196 0.0 0.0 0.00 0.00 0.00 57 1013.5
20260508003349 51 196 0.0 0.0 0.00 0.00 0.00 56 1013.6
20260508002847 52 196 0.0 0.0 0.00 0.00 0.00 54 1013.3
20260508002343 52 196 0.0 0.0 0.00 0.00 0.00 53 1013.6
20260508001839 53 196 0.0 0.0 0.00 0.00 0.00 53 1013.3
20260508001335 54 196 0.0 0.0 0.00 0.00 0.00 53 1013.2
20260508000832 54 195 0.0 0.0 0.00 0.00 0.00 49 1013.1
20260508000328 55 198 0.0 0.0 0.00 0.00 0.00 46 1013.2
20260507235825 56 200 0.0 1.0 0.00 0.00 0.00 49 1013.1
20260507235323 57 198 0.0 0.0 0.00 0.00 0.00 47 1013.2
20260507234819 57 240 1.0 2.0 0.00 0.00 0.00 39 1013.0
20260507234316 58 198 0.0 0.0 0.00 0.00 0.00 45 1013.1
20260507233812 58 348 1.0 2.0 0.00 0.00 0.00 38 1013.1
20260507233310 58 313 0.0 1.0 0.00 0.00 0.00 39 1013.1
20260507232808 58 323 3.0 3.0 0.00 0.00 0.00 37 1012.8
20260507232306 59 349 0.0 3.0 0.00 0.00 0.00 37 1013.1
20260507231801 59 29 1.0 2.0 0.00 0.00 0.00 38 1013.0
20260507231258 59 338 1.0 2.0 0.00 0.00 0.00 37 1012.9
20260507230754 60 288 1.0 2.0 0.00 0.00 0.00 37 1013.0
20260507230252 60 301 1.0 2.0 0.00 0.00 0.00 36 1013.0
20260507225751 60 29 0.0 3.0 0.00 0.00 0.00 36 1013.1
20260507225248 60 292 2.0 4.0 0.00 0.00 0.00 36 1013.2
20260507224744 59 58 3.0 4.0 0.00 0.00 0.00 37 1013.1
20260507224241 59 286 2.0 4.0 0.00 0.00 0.00 37 1013.2
20260507223737 59 276 2.0 3.0 0.00 0.00 0.00 39 1013.2
20260507223234 60 305 0.0 3.0 0.00 0.00 0.00 37 1013.3
20260507222730 61 278 2.0 4.0 0.00 0.00 0.00 35 1013.2
20260507222227 62 14 3.0 7.0 0.00 0.00 0.00 34 1013.3
20260507221724 61 241 2.0 2.0 0.00 0.00 0.00 36 1013.1
20260507221220 61 299 2.0 4.0 0.00 0.00 0.00 37 1013.2
20260507220716 60 290 2.0 3.0 0.00 0.00 0.00 37 1013.3
20260507220215 60 247 1.0 6.0 0.00 0.00 0.00 36 1013.4
20260507215711 59 277 1.0 3.0 0.00 0.00 0.00 38 1013.2
20260507215209 58 266 1.0 4.0 0.00 0.00 0.00 36 1013.2
20260507214706 59 241 4.0 8.0 0.00 0.00 0.00 36 1013.2
20260507214203 60 348 2.0 7.0 0.00 0.00 0.00 35 1013.1
20260507213658 61 301 3.0 6.0 0.00 0.00 0.00 35 1013.3
20260507213155 61 5 2.0 4.0 0.00 0.00 0.00 34 1013.0
20260507212651 61 275 1.0 4.0 0.00 0.00 0.00 34 1013.0
20260507212148 61 308 3.0 6.0 0.00 0.00 0.00 35 1013.1
20260507211645 62 66 3.0 4.0 0.00 0.00 0.00 34 1013.1
20260507211140 62 4 3.0 8.0 0.00 0.00 0.00 34 1013.1
20260507210638 62 256 1.0 3.0 0.00 0.00 0.00 35 1012.9
20260507210135 61 229 3.0 7.0 0.00 0.00 0.00 35 1012.9
20260507205631 60 273 4.0 4.0 0.00 0.00 0.00 38 1012.9
20260507205128 59 262 6.0 9.0 0.00 0.00 0.00 38 1012.9
20260507204624 59 236 5.0 7.0 0.00 0.00 0.00 38 1013.0
20260507204122 60 247 5.0 8.0 0.00 0.00 0.00 38 1012.9
20260507203620 59 224 4.0 11.0 0.00 0.00 0.00 37 1012.9
20260507203117 60 271 2.0 6.0 0.00 0.00 0.00 37 1013.0
20260507202612 61 230 3.0 7.0 0.00 0.00 0.00 37 1012.8
20260507202109 59 97 3.0 6.0 0.00 0.00 0.00 40 1012.9
20260507201604 60 273 2.0 7.0 0.00 0.00 0.00 40 1013.0
20260507201101 59 260 5.0 10.0 0.00 0.00 0.00 36 1013.1
20260507200556 60 27 5.0 8.0 0.00 0.00 0.00 38 1013.2
20260507200053 60 260 2.0 9.0 0.00 0.00 0.00 36 1013.0
20260507195550 60 292 4.0 6.0 0.00 0.00 0.00 35 1013.0
20260507195048 60 308 1.0 11.0 0.00 0.00 0.00 37 1013.1
20260507194543 60 313 4.0 10.0 0.00 0.00 0.00 38 1013.2
20260507194040 59 240 2.0 9.0 0.00 0.00 0.00 40 1012.9
20260507193537 59 149 1.0 6.0 0.00 0.00 0.00 37 1013.1
20260507193034 60 3 4.0 8.0 0.00 0.00 0.00 38 1013.2
20260507192530 62 302 2.0 4.0 0.00 0.00 0.00 37 1012.8
20260507192027 63 270 3.0 6.0 0.00 0.00 0.00 38 1013.1
20260507191522 63 137 1.0 2.0 0.00 0.00 0.00 37 1013.0
20260507191020 62 313 2.0 3.0 0.00 0.00 0.00 39 1013.0
20260507190517 62 358 3.0 4.0 0.00 0.00 0.00 40 1013.1
20260507190016 61 347 1.0 3.0 0.00 0.00 0.00 38 1013.1
20260507185513 61 234 2.0 11.0 0.00 0.00 0.00 40 1013.2
20260507185010 60 300 4.0 6.0 0.00 0.00 0.00 40 1013.2
20260507184508 59 297 6.0 8.0 0.00 0.00 0.00 40 1013.3
20260507184006 61 286 6.0 10.0 0.00 0.00 0.00 38 1013.5
20260507183501 60 278 3.0 4.0 0.00 0.00 0.00 39 1013.4
20260507182959 61 274 3.0 8.0 0.00 0.00 0.00 40 1013.5
20260507182455 61 272 1.0 8.0 0.00 0.00 0.00 40 1013.4
20260507181951 60 279 5.0 7.0 0.00 0.00 0.00 41 1013.3
20260507181448 60 272 2.0 3.0 0.00 0.00 0.00 41 1013.3
20260507180944 60 222 0.0 2.0 0.00 0.00 0.00 39 1013.3
20260507180441 59 105 2.0 6.0 0.00 0.00 0.00 42 1013.4
20260507175937 59 278 1.0 4.0 0.00 0.00 0.00 42 1013.2
20260507175434 59 284 2.0 6.0 0.00 0.00 0.00 39 1013.5
20260507174932 59 343 4.0 7.0 0.00 0.00 0.00 38 1013.4
20260507174428 60 22 2.0 6.0 0.00 0.00 0.00 41 1013.4
20260507173926 59 299 3.0 4.0 0.00 0.00 0.00 45 1013.6
20260507173423 60 261 2.0 6.0 0.00 0.00 0.00 42 1013.7
20260507172919 60 205 1.0 3.0 0.00 0.00 0.00 43 1013.7
20260507172416 59 276 1.0 6.0 0.00 0.00 0.00 41 1013.7
20260507171912 59 288 3.0 7.0 0.00 0.00 0.00 41 1013.9
20260507171409 59 31 2.0 11.0 0.00 0.00 0.00 43 1014.1
20260507170906 59 80 2.0 6.0 0.00 0.00 0.00 40 1013.8
20260507170402 59 259 1.0 6.0 0.00 0.00 0.00 41 1014.1
20260507165859 59 312 2.0 4.0 0.00 0.00 0.00 43 1014.3
20260507165354 59 230 2.0 7.0 0.00 0.00 0.00 42 1014.0
20260507164850 59 239 2.0 4.0 0.00 0.00 0.00 44 1013.9
20260507164348 59 323 1.0 3.0 0.00 0.00 0.00 45 1014.3
20260507163845 57 213 0.0 2.0 0.00 0.00 0.00 45 1014.2
20260507163342 58 327 6.0 9.0 0.00 0.00 0.00 40 1014.3
20260507162839 59 181 0.0 2.0 0.00 0.00 0.00 43 1014.2
20260507162334 58 308 1.0 3.0 0.00 0.00 0.00 43 1014.2
20260507161832 57 260 3.0 4.0 0.00 0.00 0.00 41 1014.2
20260507161328 57 234 1.0 4.0 0.00 0.00 0.00 39 1014.1
20260507160825 57 246 1.0 8.0 0.00 0.00 0.00 41 1014.2
20260507160321 57 321 1.0 4.0 0.00 0.00 0.00 43 1014.2
20260507155817 57 268 4.0 8.0 0.00 0.00 0.00 40 1014.1
20260507155313 57 312 2.0 7.0 0.00 0.00 0.00 43 1014.0
20260507154809 57 227 2.0 4.0 0.00 0.00 0.00 44 1014.0
20260507154307 57 225 0.0 2.0 0.00 0.00 0.00 41 1014.2
20260507153803 57 314 3.0 4.0 0.00 0.00 0.00 44 1014.1
20260507153300 57 238 1.0 3.0 0.00 0.00 0.00 43 1014.1
20260507152757 56 236 1.0 3.0 0.00 0.00 0.00 47 1014.0
20260507152253 57 313 4.0 6.0 0.00 0.00 0.00 44 1014.1
20260507151749 56 91 2.0 7.0 0.00 0.00 0.00 43 1013.9
20260507151245 56 250 6.0 9.0 0.00 0.00 0.00 43 1013.9
20260507150743 56 278 1.0 4.0 0.00 0.00 0.00 43 1014.2
20260507150239 56 154 1.0 6.0 0.00 0.00 0.00 47 1013.9
20260507145735 55 207 4.0 4.0 0.00 0.00 0.00 46 1013.9